Weather reports worldwide

Advertisment
Frittenden, United Kingdom (99182): temperature & dewpoint: 12.06.2019 03:00:00 - 18.06.2019 03:00:00 (BST)Frittenden, United Kingdom (99182): precipitation: 12.06.2019 03:00:00 - 18.06.2019 03:00:00 (BST)
Date & Time tt [°C] td [°C] rr [mm]
18.06.2019 03:00:00 - - -
18.06.2019 02:00:00 9,5 9,0 0,0
18.06.2019 01:00:00 10,0 9,0 0,0
18.06.2019 00:00:00 10,3 9,1 0,0
17.06.2019 23:00:00 11,1 9,2 0,0
17.06.2019 22:00:00 13,0 9,5 0,0
17.06.2019 21:00:00 15,2 9,8 0,0
17.06.2019 20:00:00 16,2 9,9 0,0
17.06.2019 19:00:00 17,2 10,1 0,0
17.06.2019 18:00:00 18,8 10,8 0,0
17.06.2019 17:00:00 20,0 10,9 0,0
17.06.2019 16:00:00 20,8 11,4 0,0
17.06.2019 15:00:00 20,6 11,4 0,0
17.06.2019 14:00:00 20,4 11,2 0,0
17.06.2019 13:00:00 20,7 12,5 0,0
17.06.2019 12:00:00 20,3 11,6 0,0
17.06.2019 11:00:00 20,3 12,5 0,0
17.06.2019 10:00:00 17,1 11,7 0,0
17.06.2019 09:00:00 17,4 12,9 0,0
17.06.2019 08:00:00 15,9 12,9 0,0
17.06.2019 07:00:00 13,0 12,7 0,0
17.06.2019 06:00:00 10,4 10,4 0,0
17.06.2019 05:00:00 10,3 10,1 0,0
17.06.2019 04:00:00 10,5 10,2 0,0
17.06.2019 03:00:00 11,1 10,9 0,0
17.06.2019 02:00:00 10,9 10,6 0,0
17.06.2019 01:00:00 10,7 10,3 0,0
17.06.2019 00:00:00 10,7 10,1 0,0
16.06.2019 23:00:00 11,6 10,7 0,0
16.06.2019 22:00:00 12,7 10,4 0,0
16.06.2019 21:00:00 14,7 10,9 0,0
16.06.2019 20:00:00 16,6 11,4 0,0
16.06.2019 19:00:00 17,9 11,7 0,0
16.06.2019 18:00:00 18,9 12,4 0,0
16.06.2019 17:00:00 18,4 12,6 0,0
16.06.2019 16:00:00 17,1 12,6 0,0
16.06.2019 15:00:00 17,5 13,2 0,0
16.06.2019 14:00:00 17,1 12,7 0,0
16.06.2019 13:00:00 17,2 13,7 0,0
16.06.2019 12:00:00 17,3 14,4 0,0
16.06.2019 11:00:00 17,2 13,1 0,0
16.06.2019 10:00:00 15,3 12,7 0,0
16.06.2019 09:00:00 15,8 13,0 0,0
16.06.2019 08:00:00 14,4 12,8 0,0
16.06.2019 07:00:00 12,7 12,6 0,0
16.06.2019 06:00:00 10,7 10,6 0,0
16.06.2019 05:00:00 9,3 9,0 0,0
16.06.2019 04:00:00 10,6 10,3 0,0
16.06.2019 03:00:00 10,6 10,2 0,0
16.06.2019 02:00:00 11,6 11,0 0,0
16.06.2019 01:00:00 12,6 12,1 0,0
16.06.2019 00:00:00 12,7 12,2 0,0
15.06.2019 23:00:00 13,0 12,3 0,0
15.06.2019 22:00:00 13,5 12,8 0,2
15.06.2019 21:00:00 13,5 12,7 0,2
15.06.2019 20:00:00 13,7 12,3 0,2
15.06.2019 19:00:00 14,4 12,3 0,0
15.06.2019 18:00:00 16,3 11,6 0,0
15.06.2019 17:00:00 18,0 11,9 0,0
15.06.2019 16:00:00 17,1 10,6 0,0
15.06.2019 15:00:00 17,3 10,7 0,0
15.06.2019 14:00:00 18,8 9,9 0,0
15.06.2019 13:00:00 18,0 9,9 0,0
15.06.2019 12:00:00 18,9 11,9 0,0
15.06.2019 11:00:00 18,4 11,3 0,0
15.06.2019 10:00:00 18,2 11,4 0,0
15.06.2019 09:00:00 16,6 11,1 0,0
15.06.2019 08:00:00 14,0 11,0 0,0
15.06.2019 07:00:00 12,2 11,1 0,0
15.06.2019 06:00:00 11,4 10,6 0,0
15.06.2019 05:00:00 11,2 10,5 0,0
15.06.2019 04:00:00 11,1 10,6 0,0
15.06.2019 03:00:00 10,4 9,6 0,0
15.06.2019 02:00:00 11,1 10,0 0,0
15.06.2019 01:00:00 12,0 10,4 0,0
15.06.2019 00:00:00 11,9 10,2 0,0
14.06.2019 23:00:00 11,9 10,0 0,0
14.06.2019 22:00:00 11,8 9,7 0,0
14.06.2019 21:00:00 13,6 9,7 0,0
14.06.2019 20:00:00 16,0 9,2 0,0
14.06.2019 19:00:00 18,1 11,3 0,0
14.06.2019 18:00:00 18,6 10,6 0,0
14.06.2019 17:00:00 18,2 10,6 0,0
14.06.2019 16:00:00 18,5 12,3 0,0
14.06.2019 15:00:00 17,9 11,7 0,0
14.06.2019 14:00:00 18,3 11,0 0,0
14.06.2019 13:00:00 17,0 11,0 0,0
14.06.2019 12:00:00 16,0 10,2 0,0
14.06.2019 11:00:00 15,4 10,8 0,0
14.06.2019 10:00:00 16,4 10,5 0,0
14.06.2019 09:00:00 15,5 10,7 0,0
14.06.2019 08:00:00 14,6 11,3 0,0
14.06.2019 07:00:00 13,8 11,5 0,0
14.06.2019 06:00:00 12,0 11,0 0,0
14.06.2019 05:00:00 11,5 10,5 0,0
14.06.2019 04:00:00 11,2 9,9 0,0
14.06.2019 03:00:00 12,6 10,9 0,0
14.06.2019 02:00:00 12,4 11,0 0,0
14.06.2019 01:00:00 12,3 10,7 0,0
14.06.2019 00:00:00 12,7 10,7 0,0
13.06.2019 23:00:00 12,8 10,6 0,0
13.06.2019 22:00:00 13,0 10,4 0,0
13.06.2019 21:00:00 13,1 10,2 0,0
13.06.2019 20:00:00 13,3 10,0 0,0
13.06.2019 19:00:00 14,0 9,7 0,0
13.06.2019 18:00:00 14,5 9,8 0,0
13.06.2019 17:00:00 15,0 9,4 0,0
13.06.2019 16:00:00 15,3 8,5 0,0
13.06.2019 15:00:00 15,6 10,1 0,0
13.06.2019 14:00:00 14,8 9,6 0,0
13.06.2019 13:00:00 14,8 11,1 0,0
13.06.2019 12:00:00 15,3 11,0 0,0
13.06.2019 11:00:00 13,4 10,5 0,0
13.06.2019 10:00:00 13,4 10,4 0,0
13.06.2019 09:00:00 13,8 12,3 0,2
13.06.2019 08:00:00 13,1 12,7 0,0
13.06.2019 07:00:00 11,8 11,8 0,0
13.06.2019 06:00:00 10,2 10,2 0,0
13.06.2019 05:00:00 9,6 9,6 0,0
13.06.2019 04:00:00 9,9 9,9 0,0
13.06.2019 03:00:00 9,2 9,2 0,0
13.06.2019 02:00:00 8,7 8,5 0,0
13.06.2019 01:00:00 9,4 9,3 0,0
13.06.2019 00:00:00 10,5 10,4 0,0
12.06.2019 23:00:00 10,3 9,8 0,0
12.06.2019 22:00:00 12,0 11,7 0,0
12.06.2019 21:00:00 12,1 11,4 0,0
12.06.2019 20:00:00 13,2 11,9 0,0
12.06.2019 19:00:00 13,9 12,5 0,0
12.06.2019 18:00:00 14,0 12,8 0,0
12.06.2019 17:00:00 13,7 13,0 0,4
12.06.2019 16:00:00 13,1 12,5 1,0
12.06.2019 15:00:00 13,2 12,5 2,0
12.06.2019 14:00:00 13,2 12,1 1,6
12.06.2019 13:00:00 13,4 11,6 0,0
12.06.2019 12:00:00 15,0 11,6 0,0
12.06.2019 11:00:00 15,2 11,5 0,0
12.06.2019 10:00:00 15,5 11,7 0,0
12.06.2019 09:00:00 13,1 11,3 0,0
12.06.2019 08:00:00 12,7 11,7 0,0
12.06.2019 07:00:00 12,4 12,1 0,2
12.06.2019 06:00:00 11,5 11,5 0,0
12.06.2019 05:00:00 11,1 11,1 0,0
12.06.2019 04:00:00 10,4 10,3 0,0
12.06.2019 03:00:00 10,0 9,8 0,0

tt = temperature
td = dewpoint
rr = precipitation

Next stations